Location: ??????
(30.5519°N, 47.7720°E)
Time: 17:48:17
(UTC+00:00)

PSLV R/B - Pass Details

Date: 24 January 2021
Orbit: 567 x 598 km, 98.2° (Epoch: 02 March)

Event Time Altitude Azimuth Distance (km) Brightness Sun altitude
Rises 14:55:04 0° 18° (NNE) 2,845 7.1 -8.3°
Reaches altitude 10° 14:57:18 10° 24° (NNE) 1,939 6.2 -8.8°
Maximum altitude 15:01:24 50° 100° (E) 757 4.2 -9.6°
Drops below altitude 10° 15:05:27 10° 177° (S) 1,919 6.7 -10.4°
Sets 15:07:39 0° 182° (S) 2,813 7.7 -10.9°
